sat.trackr.live / text

‹ back to catalog

STARLINK-11289 [DTC]

NORAD 60991 · 2024-158B

PAYLOAD ACTIVE UNKNOWN

§ Identity

Operator
Country
US
Launch date
2024-09-05
Launch site
AFETR
Launch vehicle
Mass (kg)
RCS (m²)

Purposes: comms

External: N2YO · Heavens-Above · Gunter

§ Orbital elements

Epoch: 2026-09-21T16:52:18.919200Z

Period
91.74 min
Inclination
53.1587°
Eccentricity
0.0001216
Mean motion
15.69704955 rev/d
Perigee alt
358.9 km
Apogee alt
360.6 km
Semi-major
6,737.9 km
B*
-2.6173e-6
RAAN
34.7784°
Arg perigee
92.2407°
Mean anomaly
267.8751°
Rev number
11,838

§ Raw data

STARLINK-11289 [DTC]1 60991U 24158B   26264.70299675 -.00000906  00000+0 -26173-5 0  99902 60991  53.1587  34.7784 0001216  92.2407 267.8751 15.69704955118381

JSON: /api/v1/satellites/60991 · /tle

For live sub-satellite position, see the globe view (requires WebGL).

§ Visibility from observer

Set your observer location to see the next 7 days of passes ≥ 10°. The values pass through the URL so the page stays shareable.

No JS? Fill the form by hand. The geolocation button needs JavaScript.